Terminal Aerodrome Forecast
Issued by NWS Portland, OR

Home | Current Version | Previous Version | Text Only | Print | Product List | Glossary On
Versions: 1 2 3 4 5 6 7 8 9 10 11 12 13 14 15 16 17 18 19 20 21 22 23 24 25 26 27 28 29 30 31 32 33 34 35 36 37 38 39 40 41 42 43 44 45
000
FTUS46 KPQR 291502 AAA
TAFPDX
TAF AMD
KPDX 291502Z 2915/3012 20015G30KT P6SM SCT025 BKN060
      TEMPO 2915/2919 -RA BKN025
     FM292200 21013G24KT P6SM -SHRA SCT035 BKN060
     FM300400 20010KT P6SM -RA BKN035 OVC050=

USA.gov is the U.S. government's official web portal to all federal, state and local government web resources and services.